User: anonymous   Login
Location: Unspecified
(0.0000°N, 0.0000°E)
Time: 01:55:55
(UTC+00:00)
Language:

Sedsat-1 - Orbit

View from above orbital plane
View from above orbital plane
View from above satellite
View from above satellite

Ground track
Ground track

The orbit data is extracted from the following two-line orbital elements,

1 25509U 98061B   17147.46270590 +.00000184 +00000-0 +22475-4 0  9995
2 25509 031.4313 183.0086 0346892 182.5110 177.3764 14.30276412971703
Epoch (UTC): 27 May 2017 11:06:17
Eccentricity: 0.0346892
inclination: 31.4313°
perigee height: 542 km
apogee height: 1039 km
right ascension of ascending node: 183.0086°
argument of perigee: 182.5110°
revolutions per day: 14.30276412
mean anomaly at epoch: 177.3764°
orbit number at epoch: 97170

The dashed part of the orbit path shows where the satellite is in the earth's shadow,  

DLR